Regional Weather Roundup
Issued by NWS

Home | Current Version | Previous Version | Graphics & Text | Print | Product List | Glossary On
Versions: 1 2 3 4 5 6 7 8 9 10 11 12 13 14 15 16 17 18 19 20 21 22 23 24 25 26 27 28 29 30 31 32 33 34 35 36 37 38 39 40 41 42 43 44 45 46 47 48 49 50
000
ASUS43 KLSX 030259
RWRMO

WEATHER SUMMARY FOR MISSOURI
NATIONAL WEATHER SERVICE SPRINGFIELD MO
1000 PM CDT THU JUL 02 2015

NOTE: "FAIR" INDICATES FEW OR NO CLOUDS BELOW 12,000 FEET WITH NO
       SIGNIFICANT WEATHER AND/OR OBSTRUCTIONS TO VISIBILITY.
       CURRENT SKY AND/OR WEATHER CONDITIONS ARE NOT AVAILABLE FOR
       CHILLICOTHE AND FARMINGTON.

MOZ001>031-035>038-043-044-053-054-030400-
...NORTHERN AND WESTERN MISSOURI...

CITY           SKY/WX    TMP DP  RH WIND       PRES   REMARKS
KANSAS CTY INT MOCLDY    68  66  93 NE6       29.93R FOG
KANSAS C DTWN  MOCLDY    69  66  90 NE6       29.92R
LEE`S SUMMIT   MOCLDY    70  65  84 NE7       29.93R
ST JOSEPH      CLOUDY    70  66  87 E7        29.93R
CHILLICOTHE      N/A     67  60  78 NE6       29.95R
KIRKSVILLE     CLOUDY    64  60  87 NE5       29.95S

$$
MOZ066>068-077>081-088>096-101>105-030400-
...SOUTHWEST MISSOURI...

CITY           SKY/WX    TMP DP  RH WIND       PRES   REMARKS
SPRINGFIELD    CLOUDY    75  71  87 N6        29.91R
JOPLIN         CLOUDY    74  72  93 CALM      29.93R

$$
MOZ032>034-039>042-045>050-055>058-069>072-030400-
...CENTRAL MISSOURI...

CITY           SKY/WX    TMP DP  RH WIND       PRES   REMARKS
COLUMBIA       CLOUDY    69  61  75 E9        29.92R
JEFFERSON CITY CLOUDY    72  66  81 N3        29.91R
ROLLA          CLOUDY    70  67  90 NE5       29.91R
SEDALIA        CLOUDY    72  66  81 CALM      29.93R
OSAGE BEACH    CLOUDY    72  66  83 CALM      29.92R

$$
MOZ051-052-059>065-030400-
...EAST CENTRAL MISSOURI...

CITY           SKY/WX    TMP DP  RH WIND       PRES   REMARKS
ST LOUIS INTL  MOCLDY    71  61  70 NE8       29.91S
SPIRIT OF STL  MOCLDY    70  63  78 NE7       29.90R
ST CHARLES     MOCLDY    68  62  81 N8        29.90S

$$
MOZ072>076-082>087-097>100-106>115-030400-
...SOUTH CENTRAL AND SOUTHEAST MISSOURI...

CITY           SKY/WX    TMP DP  RH WIND       PRES   REMARKS
CAPE GIRARDEAU PTCLDY    73  69  87 NE7       29.84F
FARMINGTON     PTCLDY    70  66  88 CALM      29.93R
POPLAR BLUFF   CLOUDY    76  70  82 NE10      29.85R
WEST PLAINS    MOCLDY    75  71  87 CALM      29.91R

$$



USA.gov is the U.S. government's official web portal to all federal, state and local government web resources and services.